Tracking 18816 objects as of 19-October-2017
HD Live streaming from Space Station
objects crossing your sky now

USA 81

Track USA 81 now!
10-day predictions
USA 81 is classified as:


NORAD ID: 21949
Int'l Code: 1992-023A
Perigee: 793.1 km
Apogee: 795.3 km
Inclination: 85.0 °
Period: 100.6 minutes
Semi major axis: 7165 km
RCS: Unknown
Launch date: April 25, 1992
Source: United States (US)
Launch site: AIR FORCE WESTERN TEST RANGE (AFWTR)
aabbcc
Your satellite tracking list
Your tracking list is empty





NASA's NSSDC Master Catalog

Two Line Element Set (TLE):
1 21949U 92023A   17282.00138205 0.00000040  00000-0  15111-4 0    00
2 21949  85.0067 102.9641 0001500 126.1136 233.8863 14.31392028    08
Source of the keplerian elements: McCants